sat.trackr.live / text

‹ back to catalog

STARLINK-34646

NORAD 64796 · 2025-150G

PAYLOAD ACTIVE UNKNOWN

§ Identity

Operator
Country
US
Launch date
2025-07-16
Launch site
AFWTR
Launch vehicle
Mass (kg)
RCS (m²)

Purposes: comms

External: N2YO · Heavens-Above · Gunter

§ Orbital elements

Epoch: 2026-05-24T20:32:55.252320Z

Period
96.11 min
Inclination
70.0007°
Eccentricity
0.0002750
Mean motion
14.98335230 rev/d
Perigee alt
570.1 km
Apogee alt
574.0 km
Semi-major
6,950.2 km
B*
1.9002e-4
RAAN
302.4943°
Arg perigee
263.7269°
Mean anomaly
96.3577°
Rev number
4,881

§ Raw data

STARLINK-346461 64796U 25150G   26144.85619505  .00002175  00000+0  19002-3 0  99902 64796  70.0007 302.4943 0002750 263.7269  96.3577 14.98335230 48818

JSON: /api/v1/satellites/64796 · /tle

For live sub-satellite position, see the globe view (requires WebGL).

§ Visibility from observer

Set your observer location to see the next 7 days of passes ≥ 10°. The values pass through the URL so the page stays shareable.

No JS? Fill the form by hand. The geolocation button needs JavaScript.